Time,TemperatureF,DewpointF,PressureIn,WindDirection,WindDirectionDegrees,WindSpeedMPH,WindSpeedGustMPH,Humidity,HourlyPrecipIn,Conditions,Clouds,dailyrainin,SoftwareType,DateUTC
2013-10-10 00:01:00,41.2,0.0,30.32,West,270,0.2,1.8,0,0.00,,,0.00,WUHU216HW,2013-10-10 04:01:00,
2013-10-10 00:06:00,41.0,0.0,30.32,WNW,293,0.9,0.9,0,0.00,,,0.00,WUHU216HW,2013-10-10 04:06:00,
2013-10-10 00:11:00,40.9,0.0,30.32,WNW,293,0.4,1.1,0,0.00,,,0.00,WUHU216HW,2013-10-10 04:11:00,
2013-10-10 00:17:00,40.9,0.0,30.32,SW,225,1.1,1.1,0,0.00,,,0.00,WUHU216HW,2013-10-10 04:17:00,
2013-10-10 00:22:00,40.9,0.0,30.32,WNW,293,0.9,1.1,0,0.00,,,0.00,WUHU216HW,2013-10-10 04:22:00,
2013-10-10 00:27:00,40.7,0.0,30.32,West,270,0.0,1.1,0,0.00,,,0.00,WUHU216HW,2013-10-10 04:27:00,
2013-10-10 00:32:00,40.5,0.0,30.32,WSW,248,0.2,1.1,0,0.00,,,0.00,WUHU216HW,2013-10-10 04:32:00,
2013-10-10 00:38:00,40.3,0.0,30.31,WNW,293,0.4,1.3,0,0.00,,,0.00,WUHU216HW,2013-10-10 04:38:00,
2013-10-10 00:43:00,40.3,0.0,30.31,West,270,0.0,1.3,0,0.00,,,0.00,WUHU216HW,2013-10-10 04:43:00,
2013-10-10 00:48:00,40.3,0.0,30.31,West,270,0.0,1.1,0,0.00,,,0.00,WUHU216HW,2013-10-10 04:48:00,
2013-10-10 00:53:00,40.3,0.0,30.31,WSW,248,0.4,1.1,0,0.00,,,0.00,WUHU216HW,2013-10-10 04:53:00,
2013-10-10 00:59:00,40.3,0.0,30.31,West,270,0.0,0.9,0,0.00,,,0.00,WUHU216HW,2013-10-10 04:59:00,
2013-10-10 01:04:00,40.1,0.0,30.31,WNW,293,0.4,0.7,0,0.00,,,0.00,WUHU216HW,2013-10-10 05:04:00,
2013-10-10 01:09:00,40.0,0.0,30.31,West,270,0.0,0.7,0,0.00,,,0.00,WUHU216HW,2013-10-10 05:09:00,
2013-10-10 01:15:00,40.0,0.0,30.31,West,270,0.2,0.4,0,0.00,,,0.00,WUHU216HW,2013-10-10 05:15:00,
2013-10-10 01:20:00,39.8,0.0,30.31,West,270,0.0,0.4,0,0.00,,,0.00,WUHU216HW,2013-10-10 05:20:00,
2013-10-10 01:25:00,39.6,0.0,30.31,WNW,293,0.0,0.7,0,0.00,,,0.00,WUHU216HW,2013-10-10 05:25:00,
2013-10-10 01:30:00,39.2,0.0,30.31,WNW,293,0.4,0.7,0,0.00,,,0.00,WUHU216HW,2013-10-10 05:30:00,
2013-10-10 01:36:00,39.2,0.0,30.31,WNW,293,0.0,1.1,0,0.00,,,0.00,WUHU216HW,2013-10-10 05:36:00,
2013-10-10 01:41:00,39.2,0.0,30.31,SW,225,0.0,1.1,0,0.00,,,0.00,WUHU216HW,2013-10-10 05:41:00,
2013-10-10 01:46:00,38.9,0.0,30.31,West,270,0.2,0.4,0,0.00,,,0.00,WUHU216HW,2013-10-10 05:46:00,
2013-10-10 01:51:00,38.9,0.0,30.31,WSW,248,0.0,0.4,0,0.00,,,0.00,WUHU216HW,2013-10-10 05:51:00,
2013-10-10 01:57:00,38.9,0.0,30.31,West,270,0.7,0.7,0,0.00,,,0.00,WUHU216HW,2013-10-10 05:57:00,
2013-10-10 02:02:00,38.7,0.0,30.31,West,270,0.0,0.7,0,0.00,,,0.00,WUHU216HW,2013-10-10 06:02:00,
2013-10-10 02:07:00,38.9,0.0,30.31,West,270,0.4,0.4,0,0.00,,,0.00,WUHU216HW,2013-10-10 06:07:00,
2013-10-10 02:12:00,38.7,0.0,30.31,West,270,0.4,0.7,0,0.00,,,0.00,WUHU216HW,2013-10-10 06:12:00,
2013-10-10 02:18:00,38.5,0.0,30.30,West,270,0.7,0.7,0,0.00,,,0.00,WUHU216HW,2013-10-10 06:18:00,
2013-10-10 02:23:00,38.5,0.0,30.30,WNW,293,0.2,0.7,0,0.00,,,0.00,WUHU216HW,2013-10-10 06:23:00,
2013-10-10 02:28:00,38.5,0.0,30.30,WNW,293,0.7,0.7,0,0.00,,,0.00,WUHU216HW,2013-10-10 06:28:00,
2013-10-10 02:33:00,38.7,0.0,30.30,West,270,0.0,0.7,0,0.00,,,0.00,WUHU216HW,2013-10-10 06:33:00,
2013-10-10 02:39:00,38.7,0.0,30.30,West,270,0.4,0.7,0,0.00,,,0.00,WUHU216HW,2013-10-10 06:39:00,
2013-10-10 02:44:00,38.9,0.0,30.30,West,270,0.4,0.7,0,0.00,,,0.00,WUHU216HW,2013-10-10 06:44:00,
2013-10-10 02:49:00,38.9,0.0,30.30,West,270,0.4,0.4,0,0.00,,,0.00,WUHU216HW,2013-10-10 06:49:00,
2013-10-10 02:54:00,39.1,0.0,30.30,WSW,248,0.2,0.4,0,0.00,,,0.00,WUHU216HW,2013-10-10 06:54:00,
2013-10-10 03:00:00,39.1,0.0,30.30,SSW,203,0.0,0.7,0,0.00,,,0.00,WUHU216HW,2013-10-10 07:00:00,
2013-10-10 03:05:00,38.9,0.0,30.30,SSW,203,0.0,0.7,0,0.00,,,0.00,WUHU216HW,2013-10-10 07:05:00,
2013-10-10 03:10:00,38.5,0.0,30.29,SSW,203,0.0,0.0,0,0.00,,,0.00,WUHU216HW,2013-10-10 07:10:00,
2013-10-10 03:15:00,38.2,0.0,30.30,SSW,203,0.0,0.0,0,0.00,,,0.00,WUHU216HW,2013-10-10 07:15:00,
2013-10-10 03:21:00,38.0,0.0,30.29,SSW,203,0.0,0.0,0,0.00,,,0.00,WUHU216HW,2013-10-10 07:21:00,
2013-10-10 03:26:00,37.8,0.0,30.30,SSW,203,0.0,0.0,0,0.00,,,0.00,WUHU216HW,2013-10-10 07:26:00,
2013-10-10 03:31:00,37.6,0.0,30.29,SSW,203,0.0,0.0,0,0.00,,,0.00,WUHU216HW,2013-10-10 07:31:00,
2013-10-10 03:36:00,37.4,0.0,30.29,WNW,293,0.4,0.7,0,0.00,,,0.00,WUHU216HW,2013-10-10 07:36:00,
2013-10-10 03:42:00,37.3,0.0,30.29,WNW,293,0.4,0.7,0,0.00,,,0.00,WUHU216HW,2013-10-10 07:42:00,
2013-10-10 03:47:00,37.4,0.0,30.29,WNW,293,0.0,0.7,0,0.00,,,0.00,WUHU216HW,2013-10-10 07:47:00,
2013-10-10 03:52:00,37.4,0.0,30.29,WNW,293,0.4,0.7,0,0.00,,,0.00,WUHU216HW,2013-10-10 07:52:00,
2013-10-10 03:58:00,37.3,0.0,30.29,WNW,293,0.0,0.4,0,0.00,,,0.00,WUHU216HW,2013-10-10 07:58:00,
2013-10-10 04:03:00,37.1,0.0,30.29,WNW,293,0.0,0.2,0,0.00,,,0.00,WUHU216HW,2013-10-10 08:03:00,
2013-10-10 04:08:00,36.9,0.0,30.29,WNW,293,0.2,0.2,0,0.00,,,0.00,WUHU216HW,2013-10-10 08:08:00,
2013-10-10 04:13:00,36.7,0.0,30.29,WNW,293,0.4,0.4,0,0.00,,,0.00,WUHU216HW,2013-10-10 08:13:00,
2013-10-10 04:19:00,36.7,0.0,30.29,West,270,0.0,0.4,0,0.00,,,0.00,WUHU216HW,2013-10-10 08:19:00,
2013-10-10 04:24:00,36.5,0.0,30.28,West,270,0.4,0.4,0,0.00,,,0.00,WUHU216HW,2013-10-10 08:24:00,
2013-10-10 04:29:00,36.5,0.0,30.29,WNW,293,0.7,0.9,0,0.00,,,0.00,WUHU216HW,2013-10-10 08:29:00,
2013-10-10 04:34:00,36.5,0.0,30.28,WNW,293,0.0,0.9,0,0.00,,,0.00,WUHU216HW,2013-10-10 08:34:00,
2013-10-10 04:40:00,36.5,0.0,30.28,West,270,0.4,0.7,0,0.00,,,0.00,WUHU216HW,2013-10-10 08:40:00,
2013-10-10 04:45:00,36.4,0.0,30.28,SSW,203,0.0,0.7,0,0.00,,,0.00,WUHU216HW,2013-10-10 08:45:00,
2013-10-10 04:50:00,36.2,0.0,30.28,SSW,203,0.0,0.7,0,0.00,,,0.00,WUHU216HW,2013-10-10 08:50:00,
2013-10-10 04:55:00,36.0,0.0,30.28,WNW,293,0.4,1.1,0,0.00,,,0.00,WUHU216HW,2013-10-10 08:55:00,
2013-10-10 05:01:00,36.0,0.0,30.28,SSW,203,0.0,1.1,0,0.00,,,0.00,WUHU216HW,2013-10-10 09:01:00,
2013-10-10 05:06:00,35.8,0.0,30.28,SSW,203,0.2,0.4,0,0.00,,,0.00,WUHU216HW,2013-10-10 09:06:00,
2013-10-10 05:11:00,35.6,0.0,30.28,WNW,293,0.0,0.4,0,0.00,,,0.00,WUHU216HW,2013-10-10 09:11:00,
2013-10-10 05:16:00,35.6,0.0,30.28,West,270,0.0,0.4,0,0.00,,,0.00,WUHU216HW,2013-10-10 09:16:00,
2013-10-10 05:22:00,35.5,0.0,30.28,West,270,0.0,0.0,0,0.00,,,0.00,WUHU216HW,2013-10-10 09:22:00,
2013-10-10 05:27:00,35.5,0.0,30.27,NW,315,0.7,0.7,0,0.00,,,0.00,WUHU216HW,2013-10-10 09:27:00,
2013-10-10 05:32:00,35.5,0.0,30.27,NW,315,1.1,1.1,0,0.00,,,0.00,WUHU216HW,2013-10-10 09:32:00,
2013-10-10 05:37:00,35.6,0.0,30.27,WNW,293,0.4,1.1,0,0.00,,,0.00,WUHU216HW,2013-10-10 09:37:00,
2013-10-10 05:43:00,35.8,0.0,30.27,WNW,293,0.4,0.7,0,0.00,,,0.00,WUHU216HW,2013-10-10 09:43:00,
2013-10-10 05:48:00,36.0,0.0,30.26,West,270,0.7,0.9,0,0.00,,,0.00,WUHU216HW,2013-10-10 09:48:00,
2013-10-10 05:53:00,36.0,0.0,30.26,WSW,248,0.9,0.9,0,0.00,,,0.00,WUHU216HW,2013-10-10 09:53:00,
2013-10-10 05:59:00,36.2,0.0,30.26,West,270,0.0,0.9,0,0.00,,,0.00,WUHU216HW,2013-10-10 09:59:00,
2013-10-10 06:04:00,36.4,0.0,30.26,West,270,0.0,0.9,0,0.00,,,0.00,WUHU216HW,2013-10-10 10:04:00,
2013-10-10 06:09:00,36.4,0.0,30.26,West,270,0.0,0.4,0,0.00,,,0.00,WUHU216HW,2013-10-10 10:09:00,
2013-10-10 06:14:00,36.4,0.0,30.27,WSW,248,0.0,0.4,0,0.00,,,0.00,WUHU216HW,2013-10-10 10:14:00,
2013-10-10 06:20:00,36.2,0.0,30.27,WSW,248,0.4,0.4,0,0.00,,,0.00,WUHU216HW,2013-10-10 10:20:00,
2013-10-10 06:25:00,36.2,0.0,30.27,WSW,248,0.2,0.4,0,0.00,,,0.00,WUHU216HW,2013-10-10 10:25:00,
2013-10-10 06:30:00,36.2,0.0,30.27,NW,315,0.2,0.7,0,0.00,,,0.00,WUHU216HW,2013-10-10 10:30:00,
2013-10-10 06:35:00,36.2,0.0,30.27,WNW,293,0.2,0.7,0,0.00,,,0.00,WUHU216HW,2013-10-10 10:35:00,
2013-10-10 06:41:00,36.2,0.0,30.27,WNW,293,0.0,0.4,0,0.00,,,0.00,WUHU216HW,2013-10-10 10:41:00,
2013-10-10 06:46:00,36.2,0.0,30.27,West,270,0.0,0.0,0,0.00,,,0.00,WUHU216HW,2013-10-10 10:46:00,
2013-10-10 06:51:00,36.2,0.0,30.27,West,270,0.0,0.0,0,0.00,,,0.00,WUHU216HW,2013-10-10 10:51:00,
2013-10-10 06:56:00,36.0,0.0,30.27,WNW,293,0.0,0.7,0,0.00,,,0.00,WUHU216HW,2013-10-10 10:56:00,
2013-10-10 07:02:00,36.0,0.0,30.27,WSW,248,0.0,0.7,0,0.00,,,0.00,WUHU216HW,2013-10-10 11:02:00,
2013-10-10 07:07:00,36.0,0.0,30.27,WSW,248,0.0,0.2,0,0.00,,,0.00,WUHU216HW,2013-10-10 11:07:00,
2013-10-10 07:12:00,35.8,0.0,30.27,West,270,0.2,0.2,0,0.00,,,0.00,WUHU216HW,2013-10-10 11:12:00,
2013-10-10 07:17:00,35.8,0.0,30.27,West,270,0.0,0.4,0,0.00,,,0.00,WUHU216HW,2013-10-10 11:17:00,
2013-10-10 07:23:00,35.6,0.0,30.27,WSW,248,0.0,0.4,0,0.00,,,0.00,WUHU216HW,2013-10-10 11:23:00,
2013-10-10 07:28:00,35.8,0.0,30.28,WSW,248,0.0,0.2,0,0.00,,,0.00,WUHU216HW,2013-10-10 11:28:00,
2013-10-10 07:33:00,36.0,0.0,30.28,SSW,203,0.0,0.4,0,0.00,,,0.00,WUHU216HW,2013-10-10 11:33:00,
2013-10-10 07:38:00,36.0,0.0,30.28,SSW,203,0.0,0.4,0,0.00,,,0.00,WUHU216HW,2013-10-10 11:38:00,
2013-10-10 07:44:00,36.0,0.0,30.28,West,270,0.4,0.7,0,0.00,,,0.00,WUHU216HW,2013-10-10 11:44:00,
2013-10-10 07:49:00,36.2,0.0,30.28,WNW,293,0.4,0.7,0,0.00,,,0.00,WUHU216HW,2013-10-10 11:49:00,
2013-10-10 07:54:00,36.5,0.0,30.28,West,270,0.0,0.4,0,0.00,,,0.00,WUHU216HW,2013-10-10 11:54:00,
2013-10-10 07:59:00,37.4,0.0,30.28,WNW,293,0.4,0.4,0,0.00,,,0.00,WUHU216HW,2013-10-10 11:59:00,
2013-10-10 08:05:00,38.5,0.0,30.28,WNW,293,0.0,0.4,0,0.00,,,0.00,WUHU216HW,2013-10-10 12:05:00,
2013-10-10 08:10:00,38.5,0.0,30.28,WNW,293,0.4,0.4,0,0.00,,,0.00,WUHU216HW,2013-10-10 12:10:00,
2013-10-10 08:15:00,38.7,0.0,30.28,WNW,293,0.0,0.4,0,0.00,,,0.00,WUHU216HW,2013-10-10 12:15:00,
2013-10-10 08:21:00,38.7,0.0,30.28,WNW,293,0.0,0.4,0,0.00,,,0.00,WUHU216HW,2013-10-10 12:21:00,
2013-10-10 08:26:00,38.9,0.0,30.28,West,270,0.0,0.0,0,0.00,,,0.00,WUHU216HW,2013-10-10 12:26:00,
2013-10-10 08:31:00,39.1,0.0,30.28,West,270,0.4,0.4,0,0.00,,,0.00,WUHU216HW,2013-10-10 12:31:00,
2013-10-10 08:36:00,39.2,0.0,30.29,WSW,248,0.0,0.4,0,0.00,,,0.00,WUHU216HW,2013-10-10 12:36:00,
2013-10-10 08:42:00,39.6,0.0,30.29,West,270,0.2,0.9,0,0.00,,,0.00,WUHU216HW,2013-10-10 12:42:00,
2013-10-10 08:47:00,40.0,0.0,30.29,NW,315,0.4,0.9,0,0.00,,,0.00,WUHU216HW,2013-10-10 12:47:00,
2013-10-10 08:52:00,40.3,0.0,30.29,NNW,338,0.0,0.7,0,0.00,,,0.00,WUHU216HW,2013-10-10 12:52:00,
2013-10-10 08:57:00,41.0,0.0,30.29,NW,315,1.8,2.0,0,0.00,,,0.00,WUHU216HW,2013-10-10 12:57:00,
2013-10-10 09:03:00,41.6,0.0,30.28,NW,315,1.1,2.9,0,0.00,,,0.00,WUHU216HW,2013-10-10 13:03:00,
2013-10-10 09:08:00,42.7,0.0,30.28,WNW,293,0.4,2.9,0,0.00,,,0.00,WUHU216HW,2013-10-10 13:08:00,
2013-10-10 09:13:00,43.2,0.0,30.28,West,270,0.7,1.1,0,0.00,,,0.00,WUHU216HW,2013-10-10 13:13:00,
2013-10-10 09:18:00,43.7,0.0,30.28,WSW,248,1.3,1.6,0,0.00,,,0.00,WUHU216HW,2013-10-10 13:18:00,
2013-10-10 09:24:00,44.6,0.0,30.28,SW,225,0.9,1.8,0,0.00,,,0.00,WUHU216HW,2013-10-10 13:24:00,
2013-10-10 09:29:00,45.4,0.0,30.28,WNW,293,0.9,1.8,0,0.00,,,0.00,WUHU216HW,2013-10-10 13:29:00,
2013-10-10 09:34:00,46.1,0.0,30.28,SSW,203,0.2,1.1,0,0.00,,,0.00,WUHU216HW,2013-10-10 13:34:00,
2013-10-10 09:39:00,46.8,0.0,30.28,SW,225,0.9,1.1,0,0.00,,,0.00,WUHU216HW,2013-10-10 13:39:00,
2013-10-10 09:45:00,47.7,0.0,30.28,SW,225,1.1,1.3,0,0.00,,,0.00,WUHU216HW,2013-10-10 13:45:00,
2013-10-10 09:50:00,48.6,0.0,30.28,NNW,338,0.4,2.5,0,0.00,,,0.00,WUHU216HW,2013-10-10 13:50:00,
2013-10-10 09:55:00,49.3,0.0,30.28,West,270,2.5,2.5,0,0.00,,,0.00,WUHU216HW,2013-10-10 13:55:00,
2013-10-10 10:00:00,50.2,0.0,30.28,WSW,248,0.7,2.5,0,0.00,,,0.00,WUHU216HW,2013-10-10 14:00:00,
2013-10-10 10:06:00,50.9,0.0,30.28,WSW,248,1.8,2.7,0,0.00,,,0.00,WUHU216HW,2013-10-10 14:06:00,
2013-10-10 10:11:00,51.7,0.0,30.28,WNW,293,1.8,2.7,0,0.00,,,0.00,WUHU216HW,2013-10-10 14:11:00,
2013-10-10 10:16:00,52.6,0.0,30.28,SW,225,0.7,2.7,0,0.00,,,0.00,WUHU216HW,2013-10-10 14:16:00,
2013-10-10 10:22:00,53.3,0.0,30.28,North,0,0.0,1.8,0,0.00,,,0.00,WUHU216HW,2013-10-10 14:22:00,
2013-10-10 10:27:00,53.6,0.0,30.28,North,0,1.1,1.1,0,0.00,,,0.00,WUHU216HW,2013-10-10 14:27:00,
2013-10-10 10:32:00,54.4,0.0,30.28,South,180,1.6,1.6,0,0.00,,,0.00,WUHU216HW,2013-10-10 14:32:00,
2013-10-10 10:37:00,55.3,0.0,30.28,NNW,338,1.8,1.8,0,0.00,,,0.00,WUHU216HW,2013-10-10 14:37:00,
2013-10-10 10:43:00,55.8,0.0,30.27,SE,135,0.4,2.0,0,0.00,,,0.00,WUHU216HW,2013-10-10 14:43:00,
2013-10-10 10:48:00,56.3,0.0,30.27,ENE,68,0.7,2.0,0,0.00,,,0.00,WUHU216HW,2013-10-10 14:48:00,
2013-10-10 10:53:00,56.5,0.0,30.27,East,90,0.0,1.1,0,0.00,,,0.00,WUHU216HW,2013-10-10 14:53:00,
2013-10-10 10:58:00,57.2,0.0,30.27,SE,135,1.1,2.2,0,0.00,,,0.00,WUHU216HW,2013-10-10 14:58:00,
2013-10-10 11:04:00,58.0,0.0,30.27,ESE,113,1.1,2.5,0,0.00,,,0.00,WUHU216HW,2013-10-10 15:04:00,
2013-10-10 11:09:00,58.1,0.0,30.26,East,90,0.9,2.5,0,0.00,,,0.00,WUHU216HW,2013-10-10 15:09:00,
2013-10-10 11:14:00,58.3,0.0,30.26,SE,135,2.2,2.2,0,0.00,,,0.00,WUHU216HW,2013-10-10 15:14:00,
2013-10-10 11:19:00,58.7,0.0,30.26,East,90,1.6,2.2,0,0.00,,,0.00,WUHU216HW,2013-10-10 15:19:00,
2013-10-10 11:25:00,59.0,0.0,30.26,NE,45,2.5,2.9,0,0.00,,,0.00,WUHU216HW,2013-10-10 15:25:00,
2013-10-10 11:30:00,59.4,0.0,30.26,ESE,113,1.8,4.0,0,0.00,,,0.00,WUHU216HW,2013-10-10 15:30:00,
2013-10-10 11:35:00,59.9,0.0,30.26,NE,45,1.1,4.0,0,0.00,,,0.00,WUHU216HW,2013-10-10 15:35:00,
2013-10-10 11:40:00,60.1,0.0,30.26,SE,135,1.3,2.5,0,0.00,,,0.00,WUHU216HW,2013-10-10 15:40:00,
2013-10-10 11:46:00,60.3,0.0,30.26,NE,45,2.5,3.1,0,0.00,,,0.00,WUHU216HW,2013-10-10 15:46:00,
2013-10-10 11:51:00,60.8,0.0,30.26,ESE,113,1.1,3.6,0,0.00,,,0.00,WUHU216HW,2013-10-10 15:51:00,
2013-10-10 11:56:00,61.4,0.0,30.26,NNW,338,1.8,3.6,0,0.00,,,0.00,WUHU216HW,2013-10-10 15:56:00,
2013-10-10 12:01:00,61.6,0.0,30.25,NW,315,1.1,2.7,0,0.00,,,0.00,WUHU216HW,2013-10-10 16:01:00,
2013-10-10 12:07:00,61.2,0.0,30.25,NW,315,2.0,3.4,0,0.00,,,0.00,WUHU216HW,2013-10-10 16:07:00,
2013-10-10 12:12:00,60.8,0.0,30.25,NNE,23,2.5,3.4,0,0.00,,,0.00,WUHU216HW,2013-10-10 16:12:00,
2013-10-10 12:17:00,60.7,0.0,30.25,WNW,293,1.8,3.4,0,0.00,,,0.00,WUHU216HW,2013-10-10 16:17:00,
2013-10-10 12:22:00,60.8,0.0,30.25,NE,45,1.3,3.4,0,0.00,,,0.00,WUHU216HW,2013-10-10 16:22:00,
2013-10-10 12:28:00,61.0,0.0,30.24,NNE,23,1.8,3.8,0,0.00,,,0.00,WUHU216HW,2013-10-10 16:28:00,
2013-10-10 12:33:00,61.2,0.0,30.24,ENE,68,2.2,4.0,0,0.00,,,0.00,WUHU216HW,2013-10-10 16:33:00,
2013-10-10 12:38:00,61.2,0.0,30.24,ENE,68,2.2,4.0,0,0.00,,,0.00,WUHU216HW,2013-10-10 16:38:00,
2013-10-10 12:44:00,61.9,0.0,30.24,WSW,248,2.7,4.0,0,0.00,,,0.00,WUHU216HW,2013-10-10 16:44:00,
2013-10-10 12:49:00,62.5,0.0,30.23,SE,135,0.7,3.4,0,0.00,,,0.00,WUHU216HW,2013-10-10 16:49:00,
2013-10-10 12:54:00,62.6,0.0,30.23,WSW,248,2.5,3.4,0,0.00,,,0.00,WUHU216HW,2013-10-10 16:54:00,
2013-10-10 12:59:00,62.3,0.0,30.23,WNW,293,1.3,2.9,0,0.00,,,0.00,WUHU216HW,2013-10-10 16:59:00,
2013-10-10 13:05:00,62.3,0.0,30.23,NW,315,0.7,2.5,0,0.00,,,0.00,WUHU216HW,2013-10-10 17:05:00,
2013-10-10 13:10:00,61.6,0.0,30.23,NNW,338,1.3,2.2,0,0.00,,,0.00,WUHU216HW,2013-10-10 17:10:00,
2013-10-10 13:15:00,61.4,0.0,30.23,East,90,1.1,2.2,0,0.00,,,0.00,WUHU216HW,2013-10-10 17:15:00,
2013-10-10 13:20:00,60.8,0.0,30.22,NNE,23,2.2,4.7,0,0.00,,,0.00,WUHU216HW,2013-10-10 17:20:00,
2013-10-10 13:26:00,60.5,0.0,30.22,NW,315,1.3,4.7,0,0.00,,,0.00,WUHU216HW,2013-10-10 17:26:00,
2013-10-10 13:31:00,60.5,0.0,30.22,East,90,0.4,2.2,0,0.00,,,0.00,WUHU216HW,2013-10-10 17:31:00,
2013-10-10 13:36:00,60.5,0.0,30.22,NE,45,2.9,3.4,0,0.00,,,0.00,WUHU216HW,2013-10-10 17:36:00,
2013-10-10 13:41:00,60.8,0.0,30.22,ENE,68,3.1,3.4,0,0.00,,,0.00,WUHU216HW,2013-10-10 17:41:00,
2013-10-10 13:47:00,61.2,0.0,30.21,NNE,23,2.5,3.1,0,0.00,,,0.00,WUHU216HW,2013-10-10 17:47:00,
2013-10-10 13:52:00,61.4,0.0,30.21,ENE,68,4.3,4.7,0,0.00,,,0.00,WUHU216HW,2013-10-10 17:52:00,
2013-10-10 13:57:00,61.4,0.0,30.22,ENE,68,1.8,4.7,0,0.00,,,0.00,WUHU216HW,2013-10-10 17:57:00,
2013-10-10 14:02:00,61.6,0.0,30.21,NE,45,1.8,4.0,0,0.00,,,0.00,WUHU216HW,2013-10-10 18:02:00,
2013-10-10 14:08:00,61.4,0.0,30.21,NNW,338,1.1,2.7,0,0.00,,,0.00,WUHU216HW,2013-10-10 18:08:00,
2013-10-10 14:13:00,61.2,0.0,30.21,ESE,113,0.7,2.2,0,0.00,,,0.00,WUHU216HW,2013-10-10 18:13:00,
2013-10-10 14:18:00,61.0,0.0,30.21,NNW,338,1.1,2.2,0,0.00,,,0.00,WUHU216HW,2013-10-10 18:18:00,
2013-10-10 14:23:00,60.8,0.0,30.21,ENE,68,1.6,3.4,0,0.00,,,0.00,WUHU216HW,2013-10-10 18:23:00,
2013-10-10 14:29:00,60.8,0.0,30.21,NE,45,1.8,3.4,0,0.00,,,0.00,WUHU216HW,2013-10-10 18:29:00,
2013-10-10 14:34:00,60.8,0.0,30.21,NNW,338,2.2,2.5,0,0.00,,,0.00,WUHU216HW,2013-10-10 18:34:00,
2013-10-10 14:39:00,60.7,0.0,30.21,NNE,23,0.4,2.5,0,0.00,,,0.00,WUHU216HW,2013-10-10 18:39:00,
2013-10-10 14:44:00,60.7,0.0,30.21,SW,225,0.2,2.2,0,0.00,,,0.00,WUHU216HW,2013-10-10 18:44:00,
2013-10-10 14:50:00,60.8,0.0,30.22,NW,315,0.7,1.6,0,0.00,,,0.00,WUHU216HW,2013-10-10 18:50:00,
2013-10-10 14:55:00,60.7,0.0,30.21,NNE,23,1.8,2.0,0,0.00,,,0.00,WUHU216HW,2013-10-10 18:55:00,
2013-10-10 15:00:00,60.5,0.0,30.22,ENE,68,2.5,2.5,0,0.00,,,0.00,WUHU216HW,2013-10-10 19:00:00,
2013-10-10 15:05:00,60.5,0.0,30.21,NE,45,0.7,2.5,0,0.00,,,0.00,WUHU216HW,2013-10-10 19:05:00,
2013-10-10 15:11:00,60.7,0.0,30.21,ESE,113,0.9,2.5,0,0.00,,,0.00,WUHU216HW,2013-10-10 19:11:00,
2013-10-10 15:16:00,61.0,0.0,30.21,ENE,68,0.4,1.6,0,0.00,,,0.00,WUHU216HW,2013-10-10 19:16:00,
2013-10-10 15:21:00,61.0,0.0,30.21,NE,45,1.1,2.5,0,0.00,,,0.00,WUHU216HW,2013-10-10 19:21:00,
2013-10-10 15:27:00,61.2,0.0,30.20,NNE,23,0.4,2.5,0,0.00,,,0.00,WUHU216HW,2013-10-10 19:27:00,
2013-10-10 15:32:00,61.2,0.0,30.20,NNE,23,1.8,2.2,0,0.00,,,0.00,WUHU216HW,2013-10-10 19:32:00,
2013-10-10 15:37:00,61.0,0.0,30.20,SSW,203,0.0,1.8,0,0.00,,,0.00,WUHU216HW,2013-10-10 19:37:00,
2013-10-10 15:42:00,60.8,0.0,30.20,WNW,293,0.0,1.3,0,0.00,,,0.00,WUHU216HW,2013-10-10 19:42:00,
2013-10-10 15:48:00,60.7,0.0,30.20,NNW,338,0.7,2.0,0,0.00,,,0.00,WUHU216HW,2013-10-10 19:48:00,
2013-10-10 15:53:00,60.5,0.0,30.20,NNW,338,0.4,2.0,0,0.00,,,0.00,WUHU216HW,2013-10-10 19:53:00,
2013-10-10 15:58:00,60.3,0.0,30.20,NNE,23,0.4,1.6,0,0.00,,,0.00,WUHU216HW,2013-10-10 19:58:00,
2013-10-10 16:03:00,60.1,0.0,30.19,WNW,293,1.1,1.8,0,0.00,,,0.00,WUHU216HW,2013-10-10 20:03:00,
2013-10-10 16:09:00,59.9,0.0,30.19,WNW,293,1.3,1.8,0,0.00,,,0.00,WUHU216HW,2013-10-10 20:09:00,
2013-10-10 16:14:00,59.9,0.0,30.19,North,0,1.1,1.8,0,0.00,,,0.00,WUHU216HW,2013-10-10 20:14:00,
2013-10-10 16:19:00,59.8,0.0,30.19,ENE,68,1.1,1.8,0,0.00,,,0.00,WUHU216HW,2013-10-10 20:19:00,
2013-10-10 16:24:00,59.8,0.0,30.19,West,270,0.2,1.8,0,0.00,,,0.00,WUHU216HW,2013-10-10 20:24:00,
2013-10-10 16:30:00,59.4,0.0,30.19,NNW,338,0.4,1.6,0,0.00,,,0.00,WUHU216HW,2013-10-10 20:30:00,
2013-10-10 16:35:00,59.4,0.0,30.18,NW,315,1.1,2.0,0,0.00,,,0.00,WUHU216HW,2013-10-10 20:35:00,
2013-10-10 16:40:00,59.0,0.0,30.18,WNW,293,0.9,2.0,0,0.00,,,0.00,WUHU216HW,2013-10-10 20:40:00,
2013-10-10 16:45:00,59.0,0.0,30.18,SE,135,0.0,1.1,0,0.00,,,0.00,WUHU216HW,2013-10-10 20:45:00,
2013-10-10 16:51:00,59.0,0.0,30.18,NW,315,0.4,1.1,0,0.00,,,0.00,WUHU216HW,2013-10-10 20:51:00,
2013-10-10 16:56:00,58.9,0.0,30.18,NE,45,0.0,1.1,0,0.00,,,0.00,WUHU216HW,2013-10-10 20:56:00,
2013-10-10 17:01:00,58.9,0.0,30.18,SE,135,0.4,1.1,0,0.00,,,0.00,WUHU216HW,2013-10-10 21:01:00,
2013-10-10 17:06:00,58.7,0.0,30.18,ESE,113,0.7,1.1,0,0.00,,,0.00,WUHU216HW,2013-10-10 21:06:00,
2013-10-10 17:12:00,58.5,0.0,30.18,ESE,113,0.0,0.9,0,0.00,,,0.00,WUHU216HW,2013-10-10 21:12:00,
2013-10-10 17:17:00,58.3,0.0,30.18,ESE,113,0.0,0.4,0,0.00,,,0.00,WUHU216HW,2013-10-10 21:17:00,
2013-10-10 17:22:00,58.0,0.0,30.18,ESE,113,0.0,0.4,0,0.00,,,0.00,WUHU216HW,2013-10-10 21:22:00,
2013-10-10 17:27:00,58.0,0.0,30.18,SE,135,0.9,1.1,0,0.00,,,0.00,WUHU216HW,2013-10-10 21:27:00,
2013-10-10 17:33:00,57.6,0.0,30.18,ESE,113,1.6,2.5,0,0.00,,,0.00,WUHU216HW,2013-10-10 21:33:00,
2013-10-10 17:38:00,57.2,0.0,30.18,ESE,113,1.8,2.5,0,0.00,,,0.00,WUHU216HW,2013-10-10 21:38:00,
2013-10-10 17:43:00,56.9,0.0,30.18,ESE,113,1.6,1.8,0,0.00,,,0.00,WUHU216HW,2013-10-10 21:43:00,
2013-10-10 17:49:00,56.7,0.0,30.18,ESE,113,1.3,1.6,0,0.00,,,0.00,WUHU216HW,2013-10-10 21:49:00,
2013-10-10 17:54:00,56.5,0.0,30.18,ESE,113,1.8,1.8,0,0.00,,,0.00,WUHU216HW,2013-10-10 21:54:00,
2013-10-10 17:59:00,56.2,0.0,30.19,ESE,113,1.1,1.8,0,0.00,,,0.00,WUHU216HW,2013-10-10 21:59:00,
2013-10-10 18:04:00,56.0,0.0,30.18,East,90,1.1,1.8,0,0.00,,,0.00,WUHU216HW,2013-10-10 22:04:00,
2013-10-10 18:10:00,55.4,0.0,30.18,ESE,113,1.1,2.2,0,0.00,,,0.00,WUHU216HW,2013-10-10 22:10:00,
2013-10-10 18:15:00,55.3,0.0,30.18,ESE,113,1.6,2.2,0,0.00,,,0.00,WUHU216HW,2013-10-10 22:15:00,
2013-10-10 18:20:00,55.1,0.0,30.18,SE,135,0.7,2.2,0,0.00,,,0.00,WUHU216HW,2013-10-10 22:20:00,
2013-10-10 18:25:00,54.7,0.0,30.18,ESE,113,2.9,3.1,0,0.00,,,0.00,WUHU216HW,2013-10-10 22:25:00,
2013-10-10 18:31:00,54.5,0.0,30.18,ESE,113,2.5,3.1,0,0.00,,,0.00,WUHU216HW,2013-10-10 22:31:00,
2013-10-10 18:36:00,54.4,0.0,30.18,ESE,113,1.8,3.1,0,0.00,,,0.00,WUHU216HW,2013-10-10 22:36:00,
2013-10-10 18:41:00,54.2,0.0,30.18,East,90,0.9,3.8,0,0.00,,,0.00,WUHU216HW,2013-10-10 22:41:00,
2013-10-10 18:46:00,54.0,0.0,30.18,SE,135,1.8,3.8,0,0.00,,,0.00,WUHU216HW,2013-10-10 22:46:00,
2013-10-10 18:52:00,54.0,0.0,30.18,ESE,113,1.3,2.0,0,0.00,,,0.00,WUHU216HW,2013-10-10 22:52:00,
2013-10-10 18:57:00,53.8,0.0,30.18,East,90,0.0,2.0,0,0.00,,,0.00,WUHU216HW,2013-10-10 22:57:00,
2013-10-10 19:02:00,53.6,0.0,30.18,SSE,158,0.4,1.6,0,0.00,,,0.00,WUHU216HW,2013-10-10 23:02:00,
2013-10-10 19:07:00,53.5,0.0,30.18,SSE,158,0.0,0.9,0,0.00,,,0.00,WUHU216HW,2013-10-10 23:07:00,
2013-10-10 19:13:00,53.3,0.0,30.18,SSE,158,0.0,0.2,0,0.00,,,0.00,WUHU216HW,2013-10-10 23:13:00,
2013-10-10 19:18:00,53.1,0.0,30.18,SSE,158,0.0,0.2,0,0.00,,,0.00,WUHU216HW,2013-10-10 23:18:00,
2013-10-10 19:23:00,52.9,0.0,30.18,NW,315,0.0,1.1,0,0.00,,,0.00,WUHU216HW,2013-10-10 23:23:00,
2013-10-10 19:28:00,52.7,0.0,30.18,NW,315,0.0,1.1,0,0.00,,,0.00,WUHU216HW,2013-10-10 23:28:00,
2013-10-10 19:34:00,52.6,0.0,30.18,NW,315,0.0,0.0,0,0.00,,,0.00,WUHU216HW,2013-10-10 23:34:00,
2013-10-10 19:39:00,52.4,0.0,30.18,NW,315,0.7,0.9,0,0.00,,,0.00,WUHU216HW,2013-10-10 23:39:00,
2013-10-10 19:44:00,52.4,0.0,30.18,NW,315,0.9,2.0,0,0.00,,,0.00,WUHU216HW,2013-10-10 23:44:00,
2013-10-10 19:49:00,52.2,0.0,30.18,WSW,248,0.0,2.0,0,0.00,,,0.00,WUHU216HW,2013-10-10 23:49:00,
2013-10-10 19:55:00,52.2,0.0,30.18,SSE,158,0.0,1.1,0,0.00,,,0.00,WUHU216HW,2013-10-10 23:55:00,
2013-10-10 20:00:00,52.0,0.0,30.18,NW,315,1.3,1.8,0,0.00,,,0.00,WUHU216HW,2013-10-11 00:00:00,
2013-10-10 20:05:00,51.8,0.0,30.18,SSE,158,0.4,1.8,0,0.00,,,0.00,WUHU216HW,2013-10-11 00:05:00,
2013-10-10 20:11:00,51.7,0.0,30.18,SSE,158,0.0,1.1,0,0.01,,,0.01,WUHU216HW,2013-10-11 00:11:00,
2013-10-10 20:16:00,51.5,0.0,30.18,NW,315,0.7,0.7,0,0.01,,,0.01,WUHU216HW,2013-10-11 00:16:00,
2013-10-10 20:21:00,51.5,0.0,30.18,SSW,203,0.7,1.1,0,0.01,,,0.01,WUHU216HW,2013-10-11 00:21:00,
2013-10-10 20:26:00,51.3,0.0,30.18,SW,225,0.4,1.1,0,0.01,,,0.01,WUHU216HW,2013-10-11 00:26:00,
2013-10-10 20:32:00,51.1,0.0,30.18,SW,225,0.0,0.7,0,0.01,,,0.01,WUHU216HW,2013-10-11 00:32:00,
2013-10-10 20:37:00,50.9,0.0,30.18,SW,225,0.0,0.2,0,0.01,,,0.01,WUHU216HW,2013-10-11 00:37:00,
2013-10-10 20:42:00,50.8,0.0,30.18,SSW,203,0.0,0.4,0,0.01,,,0.01,WUHU216HW,2013-10-11 00:42:00,
2013-10-10 20:47:00,50.6,0.0,30.18,SSW,203,0.0,0.4,0,0.01,,,0.01,WUHU216HW,2013-10-11 00:47:00,
2013-10-10 20:53:00,50.4,0.0,30.18,WNW,293,0.4,1.1,0,0.01,,,0.01,WUHU216HW,2013-10-11 00:53:00,
2013-10-10 20:58:00,50.4,0.0,30.18,WNW,293,0.0,1.1,0,0.01,,,0.01,WUHU216HW,2013-10-11 00:58:00,
2013-10-10 21:03:00,50.4,0.0,30.18,WNW,293,0.0,0.2,0,0.01,,,0.01,WUHU216HW,2013-10-11 01:03:00,
2013-10-10 21:08:00,50.2,0.0,30.18,WNW,293,0.0,0.7,0,0.00,,,0.01,WUHU216HW,2013-10-11 01:08:00,
2013-10-10 21:14:00,50.2,0.0,30.18,WNW,293,0.7,0.7,0,0.00,,,0.01,WUHU216HW,2013-10-11 01:14:00,
2013-10-10 21:19:00,50.2,0.0,30.18,WNW,293,0.7,0.7,0,0.00,,,0.01,WUHU216HW,2013-10-11 01:19:00,
2013-10-10 21:24:00,50.0,0.0,30.17,WNW,293,0.7,0.7,0,0.00,,,0.01,WUHU216HW,2013-10-11 01:24:00,
2013-10-10 21:29:00,50.0,0.0,30.17,West,270,0.4,1.1,0,0.00,,,0.01,WUHU216HW,2013-10-11 01:29:00,
2013-10-10 21:35:00,50.0,0.0,30.17,WSW,248,0.7,1.1,0,0.00,,,0.01,WUHU216HW,2013-10-11 01:35:00,
2013-10-10 21:40:00,50.0,0.0,30.17,NW,315,1.6,1.6,0,0.00,,,0.01,WUHU216HW,2013-10-11 01:40:00,
2013-10-10 21:45:00,50.0,0.0,30.17,West,270,0.4,1.6,0,0.00,,,0.01,WUHU216HW,2013-10-11 01:45:00,
2013-10-10 21:51:00,50.0,0.0,30.17,WSW,248,0.7,1.6,0,0.00,,,0.01,WUHU216HW,2013-10-11 01:51:00,
2013-10-10 21:56:00,49.9,0.0,30.17,West,270,0.4,1.1,0,0.00,,,0.01,WUHU216HW,2013-10-11 01:56:00,
2013-10-10 22:01:00,49.9,0.0,30.17,WNW,293,0.0,0.9,0,0.00,,,0.01,WUHU216HW,2013-10-11 02:01:00,
2013-10-10 22:06:00,49.9,0.0,30.17,WNW,293,0.0,0.4,0,0.00,,,0.01,WUHU216HW,2013-10-11 02:06:00,
2013-10-10 22:12:00,49.7,0.0,30.17,WSW,248,0.4,0.4,0,0.00,,,0.01,WUHU216HW,2013-10-11 02:12:00,
2013-10-10 22:17:00,49.7,0.0,30.17,WSW,248,0.4,0.7,0,0.00,,,0.01,WUHU216HW,2013-10-11 02:17:00,
2013-10-10 22:22:00,49.7,0.0,30.16,West,270,0.0,0.7,0,0.00,,,0.01,WUHU216HW,2013-10-11 02:22:00,
2013-10-10 22:27:00,49.5,0.0,30.16,West,270,0.0,0.4,0,0.00,,,0.01,WUHU216HW,2013-10-11 02:27:00,
2013-10-10 22:33:00,49.5,0.0,30.16,West,270,0.0,0.0,0,0.00,,,0.01,WUHU216HW,2013-10-11 02:33:00,
2013-10-10 22:38:00,49.3,0.0,30.16,West,270,0.0,0.0,0,0.00,,,0.01,WUHU216HW,2013-10-11 02:38:00,
2013-10-10 22:43:00,49.3,0.0,30.16,SSW,203,0.0,0.2,0,0.00,,,0.01,WUHU216HW,2013-10-11 02:43:00,
2013-10-10 22:48:00,49.1,0.0,30.16,SSW,203,0.0,0.2,0,0.00,,,0.01,WUHU216HW,2013-10-11 02:48:00,
2013-10-10 22:54:00,49.0,0.0,30.16,SSW,203,0.0,0.0,0,0.00,,,0.01,WUHU216HW,2013-10-11 02:54:00,
2013-10-10 22:59:00,48.6,0.0,30.16,SSE,158,0.0,0.0,0,0.00,,,0.01,WUHU216HW,2013-10-11 02:59:00,
2013-10-10 23:04:00,48.6,0.0,30.16,SSE,158,0.0,0.0,0,0.00,,,0.01,WUHU216HW,2013-10-11 03:04:00,
2013-10-10 23:09:00,48.4,0.0,30.16,WSW,248,0.4,0.4,0,0.00,,,0.01,WUHU216HW,2013-10-11 03:09:00,
2013-10-10 23:15:00,48.4,0.0,30.16,WSW,248,0.7,0.7,0,0.00,,,0.01,WUHU216HW,2013-10-11 03:15:00,
2013-10-10 23:20:00,48.4,0.0,30.16,WNW,293,0.4,0.9,0,0.00,,,0.01,WUHU216HW,2013-10-11 03:20:00,
2013-10-10 23:25:00,48.4,0.0,30.16,WNW,293,0.4,0.9,0,0.00,,,0.01,WUHU216HW,2013-10-11 03:25:00,
2013-10-10 23:30:00,48.4,0.0,30.16,WNW,293,0.9,0.9,0,0.00,,,0.01,WUHU216HW,2013-10-11 03:30:00,
2013-10-10 23:36:00,48.4,0.0,30.16,West,270,0.4,0.9,0,0.00,,,0.01,WUHU216HW,2013-10-11 03:36:00,
2013-10-10 23:41:00,48.4,0.0,30.16,WNW,293,0.7,0.9,0,0.00,,,0.01,WUHU216HW,2013-10-11 03:41:00,
2013-10-10 23:46:00,48.4,0.0,30.15,WNW,293,0.0,0.7,0,0.00,,,0.01,WUHU216HW,2013-10-11 03:46:00,
2013-10-10 23:51:00,48.2,0.0,30.15,WNW,293,0.0,0.7,0,0.00,,,0.01,WUHU216HW,2013-10-11 03:51:00,
2013-10-10 23:57:00,48.2,0.0,30.15,WNW,293,0.9,1.1,0,0.00,,,0.01,WUHU216HW,2013-10-11 03:57:00,